DW5450 Weather Reports


Display with metric or nautical units.
time (UTC)temp
F
wind
direction
speed
MPH
gust
MPH
rain 1hr
in
rain 24hr
in
rain mn
in
humidity
%
barometer
mb
20200403220143 82 163 3.0 8.0 0.00 0.00 0.00 20 1010.0
20200403214605 82 169 4.0 8.0 0.00 0.00 0.00 21 1010.0
20200403213137 82 186 3.0 9.0 0.00 0.00 0.00 24 1010.1
20200403211747 82 141 4.0 9.0 0.00 0.00 0.00 24 1010.0
20200403210057 82 167 5.0 11.0 0.00 0.00 0.00 25 1010.2
20200403203033 81 169 5.0 11.0 0.00 0.00 0.00 30 1010.8
20200403201600 81 155 5.0 11.0 0.00 0.00 0.00 32 1011.0
20200403200019 80 151 5.0 10.0 0.00 0.00 0.00 34 1011.4
20200403194513 79 178 5.0 9.0 0.00 0.00 0.00 40 1011.8
20200403193018 78 109 5.0 10.0 0.00 0.00 0.00 48 1012.0
20200403171551 77 153 5.0 11.0 0.00 0.00 0.00 62 1012.5
20200403170226 77 160 3.0 10.0 0.00 0.00 0.00 66 1012.8
20200403164607 78 157 3.0 7.0 0.00 0.00 0.00 61 1012.9
20200403163123 77 177 2.0 4.0 0.00 0.00 0.00 48 1012.9
20200403161520 75 163 1.0 3.0 0.00 0.00 0.00 51 1012.7
20200403160016 71 32 0.0 3.0 0.00 0.00 0.00 52 1012.9
20200403154511 69 355 0.0 2.0 0.00 0.00 0.00 59 1012.8
20200403153016 66 355 1.0 2.0 0.00 0.00 0.00 63 1012.6
20200403151503 63 325 0.0 5.0 0.00 0.00 0.00 67 1012.6
20200403150158 61 355 0.0 3.0 0.00 0.00 0.00 72 1012.4
20200403144711 59 334 1.0 3.0 0.00 0.00 0.00 76 1012.1
20200403143328 56 319 2.0 5.0 0.00 0.00 0.00 80 1012.2
20200403141840 55 331 1.0 3.0 0.00 0.00 0.00 84 1012.2
20200403140205 55 17 0.0 3.0 0.00 0.00 0.00 84 1011.8
20200403134656 54 329 0.0 1.0 0.00 0.00 0.00 83 1011.4
20200403133137 54 329 0.0 2.0 0.00 0.00 0.00 82 1011.2
20200403131628 54 313 3.0 5.0 0.00 0.00 0.00 83 1011.1
20200403130049 54 326 1.0 3.0 0.00 0.00 0.00 84 1011.0
20200403124546 55 332 1.0 3.0 0.00 0.00 0.00 84 1010.9
20200403123118 55 342 0.0 2.0 0.00 0.00 0.00 84 1010.6
20200403121642 56 327 1.0 3.0 0.00 0.00 0.00 85 1010.3
20200403114654 56 355 0.0 2.0 0.00 0.00 0.00 86 1010.4
20200403113212 56 325 1.0 3.0 0.00 0.00 0.00 86 1010.3
20200403111558 56 324 1.0 3.0 0.00 0.00 0.00 87 1010.4
20200403110032 57 309 0.0 4.0 0.00 0.00 0.00 87 1010.1
20200403104615 57 340 1.0 3.0 0.00 0.00 0.00 87 1010.1
20200403103142 58 315 0.0 4.0 0.00 0.00 0.00 88 1010.2
20200403101617 57 322 3.0 5.0 0.00 0.00 0.00 88 1010.0
20200403100130 58 11 0.0 3.0 0.00 0.00 0.00 88 1010.3
20200403094557 58 327 3.0 5.0 0.00 0.00 0.00 89 1010.2
20200403093046 57 321 2.0 6.0 0.00 0.00 0.00 89 1010.1
20200403091548 58 321 2.0 4.0 0.00 0.00 0.00 89 1010.3
20200403090057 58 318 1.0 2.0 0.00 0.00 0.00 89 1010.4
20200403084543 58 302 1.0 3.0 0.00 0.00 0.00 89 1010.2
20200403083040 59 278 0.0 2.0 0.00 0.00 0.00 89 1010.4
20200403081613 60 278 0.0 1.0 0.00 0.00 0.00 89 1010.6
20200403080017 61 278 0.0 2.0 0.00 0.00 0.00 89 1010.7
20200403074604 61 278 1.0 3.0 0.00 0.00 0.00 89 1010.9
20200403073027 61 277 0.0 1.0 0.00 0.00 0.00 89 1011.1
20200403071528 61 273 1.0 2.0 0.00 0.00 0.00 89 1011.0
20200403070006 61 272 0.0 1.0 0.00 0.00 0.00 89 1011.1
20200403064509 63 238 0.0 1.0 0.00 0.00 0.00 89 1011.1
20200403063018 63 238 0.0 2.0 0.00 0.00 0.00 89 1011.0
20200403061646 63 238 0.0 2.0 0.00 0.00 0.00 89 1011.1
20200403060120 63 141 0.0 1.0 0.00 0.00 0.00 88 1011.3
20200403054654 64 141 0.0 1.0 0.00 0.00 0.00 88 1011.4
20200403053134 64 141 0.0 2.0 0.00 0.00 0.00 88 1011.8
20200403051653 65 141 0.0 1.0 0.00 0.00 0.00 88 1011.7
20200403050126 66 141 0.0 1.0 0.00 0.00 0.00 88 1011.6
20200403044644 66 141 0.0 1.0 0.00 0.00 0.00 88 1011.6
20200403043157 66 141 0.0 2.0 0.00 0.00 0.00 88 1012.0
20200403041614 67 141 0.0 1.0 0.00 0.00 0.00 87 1011.4
20200403040216 67 141 0.0 1.0 0.00 0.00 0.00 87 1011.7
20200403034618 67 141 0.0 3.0 0.00 0.00 0.00 87 1011.3
20200403033240 68 141 0.0 3.0 0.00 0.00 0.00 86 1011.4
20200403031713 68 172 1.0 2.0 0.00 0.00 0.00 86 1011.8
20200403030312 69 172 1.0 3.0 0.00 0.00 0.00 86 1011.7
20200403024644 69 184 1.0 4.0 0.00 0.00 0.00 86 1011.6
20200403023133 69 175 1.0 4.0 0.00 0.00 0.00 85 1011.1
20200403021633 69 156 2.0 6.0 0.00 0.00 0.00 85 1011.0
20200403020053 70 168 2.0 3.0 0.00 0.00 0.00 85 1010.8
20200403014640 70 171 1.0 4.0 0.00 0.00 0.00 84 1010.7
20200403013106 70 136 2.0 5.0 0.00 0.00 0.00 83 1010.7
20200403011606 71 178 3.0 6.0 0.00 0.00 0.00 81 1010.7
20200403010139 72 163 3.0 6.0 0.00 0.00 0.00 79 1010.4
20200403004558 72 190 2.0 5.0 0.00 0.00 0.00 78 1010.7
20200403003113 73 116 1.0 5.0 0.00 0.00 0.00 77 1010.6
20200403001606 73 178 3.0 8.0 0.00 0.00 0.00 76 1010.7
20200403000137 73 163 4.0 9.0 0.00 0.00 0.00 77 1010.7
20200402234637 73 165 4.0 9.0 0.00 0.00 0.00 76 1010.7
20200402233047 73 171 5.0 10.0 0.00 0.00 0.00 75 1010.8
20200402231556 73 153 4.0 9.0 0.00 0.00 0.00 77 1010.8
20200402230106 73 149 5.0 11.0 0.00 0.00 0.00 76 1010.8
20200402224610 74 134 5.0 10.0 0.00 0.00 0.00 74 1010.7